GFSFLT1_850_dewp_048.txt.gz
Dewpoint
9 9 9 8 6 2 -4 3 6 10 10 9 9 9 8 6 4 4 5 5 5 4 2 -0 -1 -0 -0 -1 -7 -10 -8 -10
8 8 7 7 7 4 -3 0 6 8 9 8 8 7 7 6 6 5 5 5 2 -0 -1 -1 -0 0 -1 -4 -7 -6 -11 -12
8 7 7 7 6 7 5 4 4 6 7 6 7 7 7 8 7 6 5 3 0 -1 -0 -0 0 -0 -3 -4 -5 -7 -10 -9
7 7 6 7 7 7 8 8 7 7 9 8 7 7 7 6 6 5 4 1 0 0 1 1 -1 -2 -3 -4 -5 -5 -3 -3
6 6 6 7 7 8 9 9 9 9 8 7 7 8 5 5 5 4 1 0 2 3 2 0 -1 -2 -3 -4 -3 -2 -2 -7
5 6 6 7 7 8 9 10 10 9 8 8 8 7 5 4 1 2 3 3 3 2 1 -1 -1 -2 -2 -2 -2 -2 -6 -18
4 4 6 8 9 9 9 10 10 9 9 8 7 5 3 2 3 3 4 4 3 2 1 1 -1 -2 -2 -2 -5 -15 -23 -20
4 5 7 7 8 9 9 10 9 9 9 8 5 4 3 4 4 4 4 4 3 2 0 -1 -2 -2 -3 -8 -17 -24 -20 -13
4 5 7 7 7 10 10 10 8 7 8 8 5 5 4 5 4 4 4 3 2 -1 1 1 -2 -5 -10 -18 -23 -21 -12 -6
6 6 7 8 9 10 10 10 9 8 8 7 5 5 5 4 4 4 3 2 2 1 1 -2 -2 -7 -18 -22 -21 -13 -7 -6
6 7 8 9 9 9 9 8 8 8 9 5 5 5 5 4 4 2 1 2 1 -1 1 -3 -5 -14 -20 -20 -11 -7 -8 -12
8 8 9 9 9 9 7 7 8 9 8 5 5 5 5 3 1 -0 0 -0 1 0 -2 -5 -9 -13 -16 -14 -8 -5 -9 -10
6 6 7 8 8 8 8 8 6 6 6 6 5 5 4 1 1 2 1 -0 1 -3 -4 -6 -7 -14 -12 -9 -6 -5 -6 -8
6 6 7 7 7 7 8 8 7 6 5 5 5 4 3 3 3 -1 -1 0 -3 -5 -6 -6 -11 -13 -8 -6 -5 -5 -6 -7
6 6 6 7 7 7 7 6 5 5 5 5 4 4 4 0 -1 -1 -1 -5 -4 -5 -5 -11 -12 -9 -6 -5 -5 -5 -6 -6
6 6 5 6 6 6 5 5 6 6 5 4 3 3 -1 -1 -1 -3 -3 -3 -5 -7 -9 -11 -9 -6 -5 -5 -5 -5 -5 -6
4 5 5 4 4 4 5 6 6 5 5 3 -0 -1 -1 -3 -3 -2 -2 -4 -6 -7 -10 -9 -6 -6 -6 -6 -5 -5 -6 -7
2 3 4 4 4 5 6 6 6 3 1 -0 -2 -2 -3 -4 -3 -4 -3 -6 -5 -7 -9 -6 -6 -6 -6 -7 -6 -6 -7 -7
2 4 4 5 5 6 6 5 1 0 -1 -5 -5 -5 -4 -4 -3 -3 -1 -4 -9 -9 -7 -6 -6 -5 -6 -6 -6 -6 -7 -5

GFSFLT1_850_dewp_051.txt.gz
Dewpoint
10 8 7 9 9 10 10 7 6 7 8 9 9 9 9 10 9 8 5 5 6 8 8 6 1 -1 -1 -1 -4 -8 -9 -12
10 9 9 10 10 10 9 8 7 6 7 8 9 10 10 9 7 4 4 5 6 6 3 -0 -1 -1 -1 -2 -5 -7 -8 -7
10 10 10 9 9 9 8 8 7 5 8 9 10 9 9 8 6 5 6 5 5 2 0 -1 -0 -0 -1 -2 -4 -5 -6 -6
10 10 9 9 8 7 6 2 1 2 7 9 9 9 8 7 7 7 6 5 4 1 0 1 1 -0 -1 -2 -3 -3 -3 -3
8 8 9 8 7 7 6 4 1 3 6 9 9 8 8 7 7 7 5 5 2 1 2 1 1 -0 -1 -2 -2 -2 -2 -5
7 7 6 6 7 7 6 6 6 7 8 9 9 9 7 7 6 5 5 3 2 3 2 1 1 1 -1 -2 -1 -2 -5 -16
6 6 7 7 7 7 7 7 8 9 9 9 8 8 7 7 5 5 3 3 3 3 2 1 0 -0 -1 -2 -3 -7 -17 -22
5 6 7 7 6 7 7 8 8 9 10 9 9 8 7 6 4 2 3 4 4 3 2 1 2 -1 0 -5 -6 -14 -21 -18
3 5 5 6 6 7 7 8 8 8 9 10 9 7 5 4 3 4 4 4 4 3 2 3 1 1 -3 -0 -5 -18 -15 -12
1 3 4 5 6 7 7 8 8 9 9 9 8 7 5 5 4 5 5 4 4 3 3 2 1 -0 -3 -10 -16 -12 -11 -9
3 2 3 4 5 6 7 8 9 9 8 7 8 8 7 6 5 5 5 5 4 3 3 2 -2 -4 -7 -14 -13 -10 -10 -11
4 4 4 4 6 7 8 8 9 9 8 9 9 8 7 6 5 4 4 4 2 3 2 0 -3 -6 -8 -15 -15 -12 -10 -7
4 5 6 6 7 8 9 9 8 7 8 8 8 7 5 5 4 3 2 2 3 1 0 -2 -4 -6 -13 -17 -13 -10 -6 -5
5 6 6 6 7 9 9 8 7 7 7 8 8 5 5 4 4 2 2 3 1 1 -3 -5 -5 -12 -14 -13 -11 -7 -5 -5
5 6 6 6 8 7 6 7 8 8 8 8 6 5 5 3 1 3 1 -1 -3 -3 -4 -6 -9 -10 -11 -10 -8 -7 -6 -5
6 6 7 7 8 7 7 8 8 7 7 6 5 4 3 3 3 -1 -1 -3 -1 -4 -6 -5 -8 -8 -8 -7 -6 -7 -6 -5
4 5 6 6 7 8 6 8 7 7 6 6 4 3 3 -0 -2 -2 -3 -2 -4 -2 -0 -3 -7 -7 -6 -6 -6 -6 -6 -6
1 2 4 5 5 6 7 7 6 6 6 4 3 1 -0 -3 -3 -2 -4 -2 -0 -1 -3 -7 -6 -7 -6 -6 -6 -6 -6 -6
2 3 4 4 5 5 6 6 6 5 4 2 0 -1 -3 -4 -4 -2 -0 -1 -4 -6 -7 -8 -9 -8 -7 -6 -6 -6 -6 -6

GFSFLT1_850_dewp_057.txt.gz
Dewpoint
8 7 6 6 4 5 8 7 5 4 0 -1 2 3 7 8 7 8 8 8 8 9 9 8 7 7 7 0 -1 -2 -6 -6
8 8 7 6 6 6 8 6 6 5 1 -0 2 4 3 5 8 7 8 9 9 8 8 7 7 7 3 -1 -1 -2 -3 -3
8 8 8 7 5 4 7 7 7 7 4 -1 -0 2 6 8 9 9 8 9 8 7 7 7 8 5 -0 -0 -1 -2 -2 -2
8 8 8 8 6 4 5 6 7 9 8 3 -1 5 8 9 9 8 8 8 6 6 7 7 5 0 -0 -0 -0 -1 -1 -2
7 8 8 7 6 6 6 7 8 8 9 7 3 4 6 7 6 7 8 7 6 6 7 5 1 -0 1 -0 -0 -1 -1 -4
5 7 7 7 7 7 7 7 8 9 9 9 7 7 7 7 7 9 8 6 6 6 5 2 1 0 1 -0 -0 -1 -2 -0
5 6 7 7 7 6 7 7 7 8 8 8 8 7 7 7 8 9 9 7 6 6 4 2 1 1 1 -0 1 1 -0 -0
5 6 6 7 7 7 7 6 7 7 8 8 8 7 7 9 10 10 8 8 7 6 4 3 2 1 -0 -0 1 2 -1 -2
6 4 4 6 7 7 7 6 6 7 7 8 7 6 7 7 9 10 9 8 7 5 4 3 2 1 0 1 3 2 -4 -10
5 7 6 6 6 5 5 6 6 7 7 8 7 7 8 7 8 9 8 7 6 5 4 3 2 1 1 2 3 -2 -4 -8
2 4 6 7 6 6 6 6 6 7 7 8 7 8 8 9 9 9 8 7 6 5 4 3 2 1 3 2 -1 -5 -2 -12
1 2 2 4 5 5 5 5 6 7 7 7 8 8 9 10 10 9 8 7 6 5 4 2 1 3 2 0 -3 -2 -8 -10
0 1 2 2 2 2 2 4 5 6 7 8 8 9 10 9 7 7 8 8 6 5 4 2 2 2 1 0 -1 -5 -8 -9
1 1 2 3 3 4 4 5 6 6 7 8 7 7 7 7 8 9 8 6 7 5 2 3 2 1 1 -2 -4 -7 -8 -8
3 4 4 3 5 6 7 7 7 7 8 8 8 8 9 9 8 8 6 6 5 3 3 2 1 0 -1 -3 -7 -7 -7 -7
1 5 7 7 8 8 8 9 9 10 10 9 9 8 8 7 7 7 5 4 2 2 2 0 0 0 -0 -3 -5 -6 -6 -7
4 5 6 6 7 8 8 9 9 9 9 8 8 8 7 6 4 2 2 2 1 0 -0 -0 -0 -0 -1 -5 -6 -6 -7 -7
3 3 4 5 6 6 7 7 8 7 7 7 6 5 4 2 2 2 1 0 -1 -1 -0 -0 -1 -2 -6 -7 -7 -7 -8 -7
2 2 2 3 4 5 6 6 6 6 6 5 3 2 2 2 0 -1 -2 -2 -1 -0 -1 -1 -6 -7 -8 -9 -11 -12 -11 -11

GFSFLT1_850_dewp_060.txt.gz
Dewpoint
10 9 9 7 7 8 8 7 8 5 5 -0 -2 2 4 8 8 9 9 9 7 7 7 8 8 7 6 6 3 -1 -1 -0
10 9 9 8 7 8 9 9 9 10 9 4 6 6 7 7 9 8 8 6 7 7 8 8 8 6 6 6 1 -1 1 -1
9 10 9 9 8 8 9 10 10 8 8 6 5 3 7 8 8 6 7 8 7 8 9 8 7 5 7 5 -1 1 1 -0
8 10 10 10 9 9 9 10 10 9 10 8 7 7 8 6 7 5 7 7 8 9 9 8 7 7 6 1 -0 0 2 1
7 9 9 10 10 10 9 10 10 10 9 9 8 6 6 7 7 6 7 7 8 9 7 7 7 6 4 0 0 1 0 -0
6 8 9 9 10 10 10 10 10 10 10 10 9 7 6 8 9 7 8 8 9 8 7 7 7 6 2 -0 0 -0 -0 -0
6 6 8 9 10 10 8 8 10 10 9 8 9 10 9 9 7 7 8 9 9 8 7 7 6 3 1 0 0 0 -0 2
7 6 7 8 10 11 9 8 10 9 9 8 8 9 9 7 6 7 8 9 9 8 7 6 5 2 1 0 0 -0 1 2
6 7 7 8 9 10 8 6 8 10 8 7 8 8 7 6 5 7 8 9 10 8 8 6 4 3 1 0 -0 0 2 2
5 6 7 9 9 10 9 8 9 10 9 10 9 7 7 5 5 6 9 10 9 8 7 6 5 3 2 0 -0 2 2 -1
3 5 6 8 9 10 11 10 10 11 11 10 9 8 7 7 7 9 9 9 9 8 7 6 4 3 3 0 1 2 -1 -0
3 4 5 6 8 9 10 10 10 10 10 10 8 9 9 9 9 9 9 9 9 9 6 5 5 4 2 0 2 0 0 -0
4 4 5 6 8 8 9 9 9 9 10 10 8 9 9 9 9 9 8 9 9 6 6 6 5 3 1 2 1 1 -0 -3
5 5 6 7 8 9 9 10 10 10 9 9 10 10 10 10 9 9 9 9 7 7 5 5 3 2 2 1 1 -0 -1 -3
4 6 7 8 9 8 6 6 7 8 9 10 11 10 10 9 9 9 8 7 6 5 4 2 2 1 0 0 0 -1 -2 -3
3 7 8 9 10 10 9 9 10 10 10 9 9 8 8 8 8 7 6 6 5 3 2 2 1 0 0 -0 -1 -1 -2 -3
6 7 8 9 9 9 9 9 9 9 9 8 8 7 7 7 6 5 4 4 3 2 1 1 1 0 -0 -1 -1 -3 -2 -3
6 7 8 8 7 8 8 8 8 7 7 7 6 6 5 4 4 3 2 2 1 1 1 1 -0 -0 -1 -4 -6 -6 -4 -4
5 5 6 6 6 6 6 6 6 6 5 5 4 3 2 2 2 2 1 0 1 0 -0 -1 -1 -2 -6 -7 -7 -8 -6 -6

GFSFLT1_850_dewp_063.txt.gz
Dewpoint
7 7 6 6 7 7 7 7 7 7 8 7 7 7 7 5 7 7 9 9 9 8 8 8 7 7 7 6 5 3 1 1
7 8 7 6 7 7 7 7 7 8 8 7 5 6 6 7 7 9 9 9 9 8 9 8 7 7 6 6 5 4 2 2
7 7 8 6 7 7 7 7 7 8 8 7 5 4 5 6 7 9 10 10 9 7 8 8 8 7 6 6 5 4 3 3
7 7 8 8 7 7 8 7 8 8 7 7 6 5 5 7 7 8 9 10 8 8 8 9 8 8 6 6 5 4 3 3
6 8 9 9 8 8 8 8 8 8 9 7 7 5 4 5 7 8 9 8 6 8 8 9 8 8 6 6 5 4 4 3
4 7 8 9 9 9 9 8 8 8 9 9 8 7 6 6 7 8 8 9 9 8 8 8 9 7 6 5 4 4 3 2
2 4 6 7 8 9 9 9 8 9 9 10 10 9 8 6 6 9 9 10 8 8 8 9 8 7 6 5 4 4 3 1
3 3 5 7 7 9 10 10 9 9 10 10 10 10 10 9 9 10 8 8 8 8 8 8 8 7 5 4 4 4 2 -0
3 4 3 5 7 8 9 10 10 9 10 11 11 11 11 11 10 7 7 5 7 9 8 9 8 6 5 4 4 3 2 -0
2 3 5 4 6 8 10 10 10 10 10 11 11 11 12 12 10 8 7 6 7 7 9 9 8 6 4 4 3 2 2 -0
2 3 4 6 6 8 9 11 10 10 10 11 11 11 11 11 11 8 7 6 7 8 9 8 7 6 4 4 3 3 0 2
2 3 3 5 7 8 10 11 11 11 11 11 11 11 10 10 10 10 9 8 9 9 8 8 6 5 4 4 3 2 1 2
2 3 4 5 6 7 9 10 11 11 11 11 11 11 11 10 10 9 9 9 9 8 8 7 6 4 5 4 1 1 1 1
0 3 4 6 7 8 9 10 10 9 10 10 11 10 10 9 9 9 9 8 9 8 6 6 5 5 4 2 1 1 1 0
-0 2 5 7 8 9 9 10 11 11 10 10 10 9 9 9 9 8 8 8 7 6 6 5 4 3 1 1 1 1 -0 -1
-2 3 5 8 9 11 11 9 9 9 10 10 9 9 9 8 8 8 8 7 6 5 4 3 2 1 1 1 1 -0 -1 -1
3 4 7 9 10 10 10 10 10 10 10 9 9 8 8 7 7 6 6 6 5 4 2 2 1 1 1 0 -0 -1 -1 -2
6 7 9 9 9 9 8 8 8 8 8 7 7 6 6 5 4 5 4 3 3 2 1 1 1 0 -0 -1 -4 -5 -3 -3
7 7 8 8 8 7 7 6 6 5 5 4 4 3 3 2 2 2 2 1 1 1 0 -0 -1 -2 -3 -6 -7 -8 -8 -5

GFSFLT1_850_dewp_069.txt.gz
Dewpoint
8 9 9 8 8 8 8 6 5 3 3 4 4 6 4 2 -1 -1 -0 -0 -1 3 4 7 6 7 7 6 6 5 4 2
7 6 7 8 8 7 4 3 3 3 3 3 1 2 4 3 2 0 1 1 -1 0 3 5 8 8 7 7 7 6 4 2
9 5 5 4 4 4 5 4 5 4 2 6 8 7 6 5 3 4 0 -0 5 3 1 4 7 8 8 8 7 6 5 5
8 6 5 3 3 3 5 6 7 7 7 8 7 6 5 3 2 3 4 5 8 8 8 7 8 8 8 8 7 6 5 5
8 7 6 6 7 6 6 7 7 8 6 5 3 5 5 4 1 4 6 7 8 8 8 7 7 6 7 8 7 7 6 6
8 7 6 6 7 8 7 8 8 7 6 7 4 5 5 5 5 5 6 8 8 7 8 8 8 8 9 8 8 7 6 7
7 7 7 6 7 7 6 7 6 5 4 8 8 7 7 6 6 6 6 7 7 7 7 7 6 5 7 9 8 8 8 7
7 7 7 7 7 7 7 6 7 7 7 7 7 8 7 6 5 5 6 7 8 7 7 7 7 7 9 8 8 8 8 7
6 6 7 7 7 7 7 7 7 8 7 7 7 7 7 7 7 5 5 5 6 6 7 8 7 9 8 8 8 8 7 6
5 6 6 7 7 8 8 7 7 8 8 8 8 9 8 8 8 6 6 6 6 7 8 7 7 8 8 8 8 8 7 5
3 5 6 7 7 7 8 8 8 8 8 8 7 8 9 9 8 8 8 8 8 9 9 8 8 9 8 8 8 7 6 5
1 3 3 5 6 7 7 8 8 8 8 8 9 8 9 10 9 10 9 10 8 8 10 9 9 8 9 8 7 7 5 5
-2 1 3 5 6 6 7 7 8 8 8 9 9 9 9 9 10 10 6 8 10 9 9 9 9 8 8 8 7 5 5 4
-1 -2 -1 4 6 8 8 9 10 10 9 10 9 10 10 8 7 8 10 10 10 9 8 8 8 7 7 6 5 4 4 3
-0 -0 -1 4 5 7 9 9 9 5 6 7 9 8 8 9 10 10 9 9 8 8 8 8 8 7 6 5 4 3 3 2
1 1 3 3 2 7 9 8 8 8 7 9 8 10 11 10 9 9 8 9 8 8 8 7 5 5 4 4 4 2 2 1
-2 3 5 5 3 2 9 10 10 10 10 10 10 10 10 9 9 9 8 8 7 7 6 5 5 4 3 2 2 1 1 0
-0 3 6 7 7 7 7 9 10 10 10 10 10 9 9 8 8 8 7 6 6 5 5 4 3 3 2 1 1 -1 -3 -6
2 3 7 8 9 9 9 10 10 10 9 9 8 8 8 7 6 6 5 4 4 4 3 2 1 1 -0 -2 -4 -6 -7 -9